Content
SEND FEEDBACK

Daily
Averages
Monthly
Summary
United States of America

ST. LOUIS - SAINT LOUIS UNIVERSITY, MISSOURI


Home > North America > United States > Missouri
Elevation: 177 meters     Latitude: 38 38N     Longitude: 090 14W

WEATHER
 
SELECT A DAY
Number of Records: 186,007;   Date Range: 1/1/95 - 7/23/14
 
SHARE

PRINT THIS DATA

[ ← Previous Day ]
WEATHER ALMANAC - 17 MAY, 2013
[ Next Day → ]
[ °F ]   °C
Weather ElementAverageHighLow
Temperature21.1 °C26.1 °C (2:53 pm)17.2 °C (1:53 am)
Dewpoint16.7 °C18.3 °C (3:53 pm)14.4 °C (4:53 am)
Humidity76.3 %90 % (1:53 am)60 % (2:53 pm)
Barometer1013.9 hPa1014.6 hPa (8:53 am)1012.9 hPa (3:53 pm)
Wind Speed8.5 km/h20.4 km/h (4:53 pm)
Weather ElementAverage
Visibility15.8 km
Wind DirectionESE (106.4 °)

Weather ElementTotal
Precipitation0.25 mm
Cooling Degree Days3.3 (Base 18.3)
Growing Degree Days11.7 (Base 10)
Averaged from 22 records on 17 May, 2013
WEATHER CONDITIONS BREAKOUT
WIND DIRECTION BREAKOUT
WEATHER BY HOUR - 17 MAY, 2013
[ °F ]   °C
Local TimeTemperatureDewpointHumidityBarometerVisibilityWind DirectionWind SpeedGust SpeedPrecipitationEventsConditions
1:53 AM17.2 °C15.6 °C90 %1013.5 hPa14.5 kmCalmMostly Cloudy
2:53 AM17.2 °C15 °C87 %1013.2 hPa16.1 kmCalmOvercast
3:53 AM18.3 °C15 °C81 %1013.2 hPa16.1 kmSE (140°)7.4 km/hOvercast
4:53 AM17.8 °C14.4 °C80 %1013.2 hPa16.1 kmSE (140°)5.6 km/hScattered Clouds
5:53 AM17.8 °C15 °C84 %1013.5 hPa16.1 kmCalmOvercast
6:53 AM18.3 °C15.6 °C84 %1014.2 hPa16.1 kmCalmOvercast
7:53 AM19.4 °C16.7 °C84 %1013.9 hPa16.1 kmSE (140°)13 km/h0 mmScattered Clouds
8:53 AM21.7 °C17.2 °C75 %1014.6 hPa16.1 kmSouth (180°)9.3 km/hClear
9:53 AM21.1 °C17.2 °C78 %1014.6 hPa16.1 kmSE (140°)9.3 km/hOvercast
10:53 AM23.3 °C17.8 °C71 %1014.6 hPa16.1 kmESE (110°)11.1 km/hMostly Cloudy
11:53 AM23.3 °C17.2 °C68 %1014.6 hPa16.1 kmSE (140°)13 km/hOvercast
12:53 PM21.1 °C17.8 °C81 %1014.6 hPa9.7 kmESE (120°)13 km/h0.25 mmRainLight Rain
2:53 PM26.1 °C17.8 °C60 %1013.5 hPa16.1 kmSE (130°)14.8 km/hMostly Cloudy
3:53 PM24.4 °C18.3 °C69 %1012.9 hPa16.1 kmENE (70°)18.5 km/hMostly Cloudy
4:53 PM24.4 °C17.2 °C64 %1012.9 hPa16.1 kmSE (140°)20.4 km/hMostly Cloudy
5:53 PM24.4 °C17.2 °C64 %1012.9 hPa16.1 kmSE (140°)13 km/hOvercast
6:53 PM23.9 °C17.2 °C66 %1012.9 hPa16.1 kmSE (140°)9.3 km/hScattered Clouds
7:53 PM22.8 °C16.7 °C68 %1013.2 hPa16.1 kmSSE (160°)5.6 km/hMostly Cloudy
8:53 PM21.7 °C17.2 °C75 %1013.5 hPa16.1 kmSSE (150°)11.1 km/hMostly Cloudy
9:53 PM20.6 °C16.7 °C78 %1014.2 hPa16.1 kmSSE (150°)5.6 km/hClear
10:53 PM19.4 °C16.7 °C84 %1014.6 hPa16.1 kmSSE (150°)5.6 km/hClear
11:53 PM18.9 °C16.7 °C87 %1014.6 hPa16.1 kmCalmPartly Cloudy
Hourly data recorded from KCPS, located 0 kilometers away from St. Louis - Saint Louis University, Missouri







STORIES FROM OUR PARTNERS